Location: Bad Salzschlirf
(50.3750°N, 9.3000°E)
Time: 03:58:56
(UTC+02:00)

ISS - Pass Details

Date: 10 July 2025
Orbit: 413 x 417 km, 51.6° (Epoch: 12 July)

Event Time Altitude Azimuth Distance (km) Brightness Sun altitude
Rises 04:25:02 0° 282° (WNW) 2,359 -0.2 -7.6°
Reaches altitude 10° 04:27:40 10° 261° (W) 1,492 -1.4 -7.3°
Maximum altitude 04:29:49 16° 220° (SW) 1,167 -2.2 -7.1°
Drops below altitude 10° 04:31:59 10° 180° (S) 1,487 -1.4 -6.9°
Sets 04:34:36 0° 158° (SSE) 2,346 -0.2 -6.6°
